# Tabular Observed and Forecast Hydrograph Information
#
# Location: San Diego River - Fashion Valley (FSNC1)
#
# File Generation Time: 05/03/2026 at 09:07 AM PDT
# Data Interval: 1 Hour
#
# Most Recent Date & Time of Maximum Observed: 05/03/2026 at 06:00 AM PDT
# Maximum Observed Stage: 2.62 Feet
# Maximum Observed Flow: 8 cfs
#
# Earliest Date & Time of Maximum Forecast: 05/05/2026 at 10:00 PM PDT
# Maximum Forecast Stage: 3.10 Feet
# Maximum Forecast Flow: 23 cfs
#
# OBSERVED
#
# Date & Time (Local) Stage (Feet) Flow (cfs) Trend Observed Status
# ---------------------------------------------------------------------------------
04/28/2026 09 AM PDT 2.51 6 Normal
04/28/2026 10 AM PDT 2.53 6 + Normal
04/28/2026 11 AM PDT 2.53 6 0 Normal
04/28/2026 12 PM PDT 2.54 6 + Normal
04/28/2026 01 PM PDT 2.54 6 0 Normal
04/28/2026 02 PM PDT 2.54 6 0 Normal
04/28/2026 03 PM PDT 2.54 6 0 Normal
04/28/2026 04 PM PDT 2.54 6 0 Normal
04/28/2026 05 PM PDT 2.55 6 + Normal
04/28/2026 06 PM PDT 2.54 6 - Normal
04/28/2026 07 PM PDT 2.52 6 - Normal
04/28/2026 08 PM PDT 2.51 6 - Normal
04/28/2026 09 PM PDT 2.52 6 + Normal
04/28/2026 10 PM PDT 2.53 6 + Normal
04/28/2026 11 PM PDT 2.52 6 - Normal
04/29/2026 12 AM PDT 2.51 6 - Normal
04/29/2026 01 AM PDT 2.50 5 - Normal
04/29/2026 02 AM PDT 2.50 5 0 Normal
04/29/2026 03 AM PDT 2.50 5 0 Normal
04/29/2026 04 AM PDT 2.51 6 + Normal
04/29/2026 05 AM PDT 2.51 6 0 Normal
04/29/2026 06 AM PDT 2.51 6 0 Normal
04/29/2026 07 AM PDT 2.51 6 0 Normal
04/29/2026 08 AM PDT 2.52 6 + Normal
04/29/2026 09 AM PDT 2.52 6 0 Normal
04/29/2026 10 AM PDT 2.56 7 + Normal
04/29/2026 11 AM PDT 2.57 7 + Normal
04/29/2026 12 PM PDT 2.56 7 - Normal
04/29/2026 01 PM PDT 2.56 7 0 Normal
04/29/2026 02 PM PDT 2.55 6 - Normal
04/29/2026 03 PM PDT 2.54 6 - Normal
04/29/2026 04 PM PDT 2.54 6 0 Normal
04/29/2026 05 PM PDT 2.54 6 0 Normal
04/29/2026 06 PM PDT 2.53 6 - Normal
04/29/2026 07 PM PDT 2.52 6 - Normal
04/29/2026 08 PM PDT 2.52 6 0 Normal
04/29/2026 09 PM PDT 2.52 6 0 Normal
04/29/2026 10 PM PDT 2.51 6 - Normal
04/29/2026 11 PM PDT 2.52 6 + Normal
04/30/2026 12 AM PDT 2.52 6 0 Normal
04/30/2026 01 AM PDT 2.52 6 0 Normal
04/30/2026 02 AM PDT 2.51 6 - Normal
04/30/2026 03 AM PDT 2.51 6 0 Normal
04/30/2026 04 AM PDT 2.50 5 - Normal
04/30/2026 05 AM PDT 2.50 5 0 Normal
04/30/2026 06 AM PDT 2.51 6 + Normal
04/30/2026 07 AM PDT 2.51 6 0 Normal
04/30/2026 08 AM PDT 2.50 5 - Normal
04/30/2026 09 AM PDT 2.51 6 + Normal
04/30/2026 10 AM PDT 2.51 6 0 Normal
04/30/2026 11 AM PDT 2.52 6 + Normal
04/30/2026 12 PM PDT 2.51 6 - Normal
04/30/2026 01 PM PDT 2.49 5 - Normal
04/30/2026 02 PM PDT 2.50 5 + Normal
04/30/2026 03 PM PDT 2.49 5 - Normal
04/30/2026 04 PM PDT 2.49 5 0 Normal
04/30/2026 05 PM PDT 2.49 5 0 Normal
04/30/2026 06 PM PDT 2.49 5 0 Normal
04/30/2026 07 PM PDT 2.49 5 0 Normal
04/30/2026 08 PM PDT 2.48 5 - Normal
04/30/2026 09 PM PDT 2.48 5 0 Normal
04/30/2026 10 PM PDT 2.48 5 0 Normal
04/30/2026 11 PM PDT 2.48 5 0 Normal
05/01/2026 12 AM PDT 2.48 5 0 Normal
05/01/2026 01 AM PDT 2.47 5 - Normal
05/01/2026 02 AM PDT 2.47 5 0 Normal
05/01/2026 03 AM PDT 2.49 5 + Normal
05/01/2026 04 AM PDT 2.50 5 + Normal
05/01/2026 05 AM PDT 2.49 5 - Normal
05/01/2026 06 AM PDT 2.49 5 0 Normal
05/01/2026 07 AM PDT 2.49 5 0 Normal
05/01/2026 08 AM PDT 2.48 5 - Normal
05/01/2026 09 AM PDT 2.48 5 0 Normal
05/01/2026 10 AM PDT 2.48 5 0 Normal
05/01/2026 11 AM PDT 2.49 5 + Normal
05/01/2026 12 PM PDT 2.49 5 0 Normal
05/01/2026 01 PM PDT 2.49 5 0 Normal
05/01/2026 02 PM PDT 2.49 5 0 Normal
05/01/2026 03 PM PDT 2.49 5 0 Normal
05/01/2026 04 PM PDT 2.50 5 + Normal
05/01/2026 05 PM PDT 2.49 5 - Normal
05/01/2026 06 PM PDT 2.49 5 0 Normal
05/01/2026 07 PM PDT 2.50 5 + Normal
05/01/2026 08 PM PDT 2.50 5 0 Normal
05/01/2026 09 PM PDT 2.49 5 - Normal
05/01/2026 10 PM PDT 2.52 6 + Normal
05/01/2026 11 PM PDT 2.52 6 0 Normal
05/02/2026 12 AM PDT 2.53 6 + Normal
05/02/2026 01 AM PDT 2.53 6 0 Normal
05/02/2026 02 AM PDT 2.53 6 0 Normal
05/02/2026 03 AM PDT 2.53 6 0 Normal
05/02/2026 04 AM PDT 2.54 6 + Normal
05/02/2026 05 AM PDT 2.53 6 - Normal
05/02/2026 06 AM PDT 2.54 6 + Normal
05/02/2026 07 AM PDT 2.51 6 - Normal
05/02/2026 08 AM PDT 2.53 6 + Normal
05/02/2026 09 AM PDT 2.53 6 0 Normal
05/02/2026 10 AM PDT 2.53 6 0 Normal
05/02/2026 11 AM PDT 2.50 5 - Normal
05/02/2026 12 PM PDT 2.50 5 0 Normal
05/02/2026 01 PM PDT 2.49 5 - Normal
05/02/2026 02 PM PDT 2.50 5 + Normal
05/02/2026 03 PM PDT 2.51 6 + Normal
05/02/2026 04 PM PDT 2.51 6 0 Normal
05/02/2026 05 PM PDT 2.51 6 0 Normal
05/02/2026 06 PM PDT 2.51 6 0 Normal
05/02/2026 07 PM PDT 2.50 5 - Normal
05/02/2026 08 PM PDT 2.49 5 - Normal
05/02/2026 09 PM PDT 2.50 5 + Normal
05/02/2026 10 PM PDT 2.50 5 0 Normal
05/02/2026 11 PM PDT 2.50 5 0 Normal
05/03/2026 12 AM PDT 2.50 5 0 Normal
05/03/2026 01 AM PDT 2.50 5 0 Normal
05/03/2026 02 AM PDT 2.50 5 0 Normal
05/03/2026 03 AM PDT 2.50 5 0 Normal
05/03/2026 04 AM PDT 2.50 5 0 Normal
05/03/2026 05 AM PDT 2.57 7 + Normal
05/03/2026 06 AM PDT 2.62 8 + Normal
05/03/2026 07 AM PDT 2.61 8 - Normal
05/03/2026 08 AM PDT 2.61 8 0 Normal
05/03/2026 09 AM PDT 2.60 7 - Normal
#
# FORECAST
#
# Date & Time (Local) Stage (Feet) Flow (cfs) Trend Forecast Status
# ---------------------------------------------------------------------------------
05/03/2026 10 AM PDT 2.60 7 Normal
05/03/2026 11 AM PDT 2.59 7 - Normal
05/03/2026 12 PM PDT 2.58 7 - Normal
05/03/2026 01 PM PDT 2.58 7 0 Normal
05/03/2026 02 PM PDT 2.57 7 - Normal
05/03/2026 03 PM PDT 2.56 7 - Normal
05/03/2026 04 PM PDT 2.56 7 0 Normal
05/03/2026 05 PM PDT 2.55 6 - Normal
05/03/2026 06 PM PDT 2.55 6 0 Normal
05/03/2026 07 PM PDT 2.54 6 - Normal
05/03/2026 08 PM PDT 2.53 6 - Normal
05/03/2026 09 PM PDT 2.53 6 0 Normal
05/03/2026 10 PM PDT 2.52 6 - Normal
05/03/2026 11 PM PDT 2.51 6 - Normal
05/04/2026 12 AM PDT 2.51 6 0 Normal
05/04/2026 01 AM PDT 2.50 5 - Normal
05/04/2026 02 AM PDT 2.49 5 - Normal
05/04/2026 03 AM PDT 2.48 5 - Normal
05/04/2026 04 AM PDT 2.48 5 0 Normal
05/04/2026 05 AM PDT 2.47 5 - Normal
05/04/2026 06 AM PDT 2.46 5 - Normal
05/04/2026 07 AM PDT 2.46 5 0 Normal
05/04/2026 08 AM PDT 2.46 5 0 Normal
05/04/2026 09 AM PDT 2.46 5 0 Normal
05/04/2026 10 AM PDT 2.46 5 0 Normal
05/04/2026 11 AM PDT 2.47 5 + Normal
05/04/2026 12 PM PDT 2.48 5 + Normal
05/04/2026 01 PM PDT 2.53 6 + Normal
05/04/2026 02 PM PDT 2.59 7 + Normal
05/04/2026 03 PM PDT 2.64 8 + Normal
05/04/2026 04 PM PDT 2.68 9 + Normal
05/04/2026 05 PM PDT 2.71 10 + Normal
05/04/2026 06 PM PDT 2.73 11 + Normal
05/04/2026 07 PM PDT 2.75 11 + Normal
05/04/2026 08 PM PDT 2.76 11 + Normal
05/04/2026 09 PM PDT 2.77 12 + Normal
05/04/2026 10 PM PDT 2.78 12 + Normal
05/04/2026 11 PM PDT 2.79 12 + Normal
05/05/2026 12 AM PDT 2.81 13 + Normal
05/05/2026 01 AM PDT 2.82 13 + Normal
05/05/2026 02 AM PDT 2.82 13 0 Normal
05/05/2026 03 AM PDT 2.82 13 0 Normal
05/05/2026 04 AM PDT 2.82 13 0 Normal
05/05/2026 05 AM PDT 2.81 13 - Normal
05/05/2026 06 AM PDT 2.81 13 0 Normal
05/05/2026 07 AM PDT 2.80 12 - Normal
05/05/2026 08 AM PDT 2.79 12 - Normal
05/05/2026 09 AM PDT 2.79 12 0 Normal
05/05/2026 10 AM PDT 2.78 12 - Normal
05/05/2026 11 AM PDT 2.78 12 0 Normal
05/05/2026 12 PM PDT 2.77 12 - Normal
05/05/2026 01 PM PDT 2.77 12 0 Normal
05/05/2026 02 PM PDT 2.76 11 - Normal
05/05/2026 03 PM PDT 2.78 12 + Normal
05/05/2026 04 PM PDT 2.83 13 + Normal
05/05/2026 05 PM PDT 2.91 16 + Normal
05/05/2026 06 PM PDT 2.98 18 + Normal
05/05/2026 07 PM PDT 3.03 20 + Normal
05/05/2026 08 PM PDT 3.06 21 + Normal
05/05/2026 09 PM PDT 3.08 22 + Normal
05/05/2026 10 PM PDT 3.10 23 + Normal
05/05/2026 11 PM PDT 3.10 23 0 Normal
05/06/2026 12 AM PDT 3.10 23 0 Normal
05/06/2026 01 AM PDT 3.09 22 - Normal
05/06/2026 02 AM PDT 3.07 21 - Normal
05/06/2026 03 AM PDT 3.06 21 - Normal
05/06/2026 04 AM PDT 3.06 21 0 Normal
05/06/2026 05 AM PDT 3.06 21 0 Normal
05/06/2026 06 AM PDT 3.05 21 - Normal
05/06/2026 07 AM PDT 3.04 20 - Normal
05/06/2026 08 AM PDT 3.04 20 0 Normal
05/06/2026 09 AM PDT 3.03 20 - Normal
05/06/2026 10 AM PDT 3.02 19 - Normal
05/06/2026 11 AM PDT 3.01 19 - Normal
05/06/2026 12 PM PDT 3.00 19 - Normal
05/06/2026 01 PM PDT 2.98 18 - Normal
05/06/2026 02 PM PDT 2.96 17 - Normal
05/06/2026 03 PM PDT 2.95 17 - Normal
05/06/2026 04 PM PDT 2.93 16 - Normal
05/06/2026 05 PM PDT 2.92 16 - Normal
05/06/2026 06 PM PDT 2.90 15 - Normal
05/06/2026 07 PM PDT 2.89 15 - Normal
05/06/2026 08 PM PDT 2.87 14 - Normal
05/06/2026 09 PM PDT 2.85 14 - Normal
05/06/2026 10 PM PDT 2.84 14 - Normal
05/06/2026 11 PM PDT 2.82 13 - Normal
05/07/2026 12 AM PDT 2.81 13 - Normal
05/07/2026 01 AM PDT 2.79 12 - Normal
05/07/2026 02 AM PDT 2.77 12 - Normal
05/07/2026 03 AM PDT 2.75 11 - Normal
05/07/2026 04 AM PDT 2.74 11 - Normal
05/07/2026 05 AM PDT 2.72 10 - Normal
05/07/2026 06 AM PDT 2.71 10 - Normal
05/07/2026 07 AM PDT 2.69 10 - Normal
05/07/2026 08 AM PDT 2.68 9 - Normal
05/07/2026 09 AM PDT 2.67 9 - Normal
05/07/2026 10 AM PDT 2.65 9 - Normal
05/07/2026 11 AM PDT 2.64 8 - Normal
05/07/2026 12 PM PDT 2.63 8 - Normal
05/07/2026 01 PM PDT 2.62 8 - Normal
05/07/2026 02 PM PDT 2.61 8 - Normal
05/07/2026 03 PM PDT 2.60 7 - Normal
05/07/2026 04 PM PDT 2.59 7 - Normal
05/07/2026 05 PM PDT 2.58 7 - Normal
05/07/2026 06 PM PDT 2.58 7 0 Normal
05/07/2026 07 PM PDT 2.57 7 - Normal
05/07/2026 08 PM PDT 2.56 7 - Normal
05/07/2026 09 PM PDT 2.55 6 - Normal
05/07/2026 10 PM PDT 2.55 6 0 Normal
05/07/2026 11 PM PDT 2.54 6 - Normal
05/08/2026 12 AM PDT 2.54 6 0 Normal
05/08/2026 01 AM PDT 2.53 6 - Normal
05/08/2026 02 AM PDT 2.53 6 0 Normal
05/08/2026 03 AM PDT 2.52 6 - Normal
05/08/2026 04 AM PDT 2.52 6 0 Normal
05/08/2026 05 AM PDT 2.51 6 - Normal
#
# NOTE 1: Stages are rounded to the nearest hundredth (.01) of a foot.
# NOTE 2: Flows are rounded to the nearest (1) cfs.
# NOTE 3: Trends are determined using hourly change in unrounded stage and flow.
# NOTE 4: Maximum Values are determined using unrounded stage and flow.
|